Time,TemperatureF,DewpointF,PressureIn,WindDirection,WindDirectionDegrees,WindSpeedMPH,WindSpeedGustMPH,Humidity,HourlyPrecipIn,Conditions,Clouds,dailyrainin,SoftwareType,DateUTC
2013-01-04 00:03:00,25.7,-99.9,-100.00,West,270,5.0,12.0,-999,0.00,,,-99.99,WeatherLink 5.4,2013-01-04 05:03:00,
2013-01-04 00:30:00,25.2,-99.9,-100.00,West,270,5.0,14.0,-999,0.00,,,-99.99,WeatherLink 5.4,2013-01-04 05:30:00,
2013-01-04 00:33:00,25.2,-99.9,-100.00,West,270,5.0,14.0,-999,0.00,,,-99.99,WeatherLink 5.4,2013-01-04 05:33:00,
2013-01-04 00:38:00,25.2,-99.9,-100.00,West,270,5.0,14.0,-999,0.00,,,-99.99,WeatherLink 5.4,2013-01-04 05:38:00,
2013-01-04 01:00:00,26.0,-99.9,-100.00,West,270,5.0,13.0,-999,0.00,,,-99.99,WeatherLink 5.4,2013-01-04 06:00:00,
2013-01-04 01:03:00,26.0,-99.9,-100.00,West,270,5.0,13.0,-999,0.00,,,-99.99,WeatherLink 5.4,2013-01-04 06:03:00,
2013-01-04 01:30:00,25.9,-99.9,-100.00,West,270,6.0,14.0,-999,0.00,,,-99.99,WeatherLink 5.4,2013-01-04 06:30:00,
2013-01-04 01:33:00,25.9,-99.9,-100.00,West,270,6.0,14.0,-999,0.00,,,-99.99,WeatherLink 5.4,2013-01-04 06:33:00,
2013-01-04 02:00:00,25.9,-99.9,-100.00,West,270,5.0,12.0,-999,0.00,,,-99.99,WeatherLink 5.4,2013-01-04 07:00:00,
2013-01-04 02:03:00,25.9,-99.9,-100.00,West,270,5.0,12.0,-999,0.00,,,-99.99,WeatherLink 5.4,2013-01-04 07:03:00,
2013-01-04 02:30:00,26.0,-99.9,-100.00,West,270,5.0,13.0,-999,0.00,,,-99.99,WeatherLink 5.4,2013-01-04 07:30:00,
2013-01-04 02:33:00,26.0,-99.9,-100.00,West,270,5.0,13.0,-999,0.00,,,-99.99,WeatherLink 5.4,2013-01-04 07:33:00,
2013-01-04 03:00:00,26.0,-99.9,-100.00,West,270,5.0,15.0,-999,0.00,,,-99.99,WeatherLink 5.4,2013-01-04 08:00:00,
2013-01-04 03:03:00,26.0,-99.9,-100.00,West,270,5.0,15.0,-999,0.00,,,-99.99,WeatherLink 5.4,2013-01-04 08:03:00,
2013-01-04 03:30:00,26.0,-99.9,-100.00,West,270,5.0,12.0,-999,0.00,,,-99.99,WeatherLink 5.4,2013-01-04 08:30:00,
2013-01-04 03:33:00,26.0,-99.9,-100.00,West,270,5.0,12.0,-999,0.00,,,-99.99,WeatherLink 5.4,2013-01-04 08:33:00,
2013-01-04 03:38:00,26.0,-99.9,-100.00,West,270,5.0,12.0,-999,0.00,,,-99.99,WeatherLink 5.4,2013-01-04 08:38:00,
2013-01-04 04:00:00,25.9,-99.9,-100.00,West,270,6.0,14.0,-999,0.00,,,-99.99,WeatherLink 5.4,2013-01-04 09:00:00,
2013-01-04 04:03:00,25.9,-99.9,-100.00,West,270,6.0,14.0,-999,0.00,,,-99.99,WeatherLink 5.4,2013-01-04 09:03:00,
2013-01-04 04:30:00,25.8,-99.9,-100.00,West,270,6.0,16.0,-999,0.00,,,-99.99,WeatherLink 5.4,2013-01-04 09:30:00,
2013-01-04 04:33:00,25.8,-99.9,-100.00,West,270,6.0,16.0,-999,0.00,,,-99.99,WeatherLink 5.4,2013-01-04 09:33:00,
2013-01-04 05:00:00,25.7,-99.9,-100.00,West,270,6.0,15.0,-999,0.00,,,-99.99,WeatherLink 5.4,2013-01-04 10:00:00,
2013-01-04 05:03:00,25.7,-99.9,-100.00,West,270,6.0,15.0,-999,0.00,,,-99.99,WeatherLink 5.4,2013-01-04 10:03:00,
2013-01-04 05:30:00,25.7,-99.9,-100.00,West,270,7.0,21.0,-999,0.00,,,-99.99,WeatherLink 5.4,2013-01-04 10:30:00,
2013-01-04 05:33:00,25.7,-99.9,-100.00,West,270,7.0,21.0,-999,0.00,,,-99.99,WeatherLink 5.4,2013-01-04 10:33:00,
2013-01-04 06:00:00,25.6,-99.9,-100.00,West,270,7.0,16.0,-999,0.00,,,-99.99,WeatherLink 5.4,2013-01-04 11:00:00,
2013-01-04 06:03:00,25.6,-99.9,-100.00,West,270,7.0,16.0,-999,0.00,,,-99.99,WeatherLink 5.4,2013-01-04 11:03:00,
2013-01-04 06:08:00,25.6,-99.9,-100.00,West,270,7.0,16.0,-999,0.00,,,-99.99,WeatherLink 5.4,2013-01-04 11:08:00,
2013-01-04 06:30:00,25.6,-99.9,-100.00,West,270,7.0,16.0,-999,0.00,,,-99.99,WeatherLink 5.4,2013-01-04 11:30:00,
2013-01-04 06:33:00,25.6,-99.9,-100.00,West,270,7.0,16.0,-999,0.00,,,-99.99,WeatherLink 5.4,2013-01-04 11:33:00,
2013-01-04 07:00:00,25.6,-99.9,-100.00,West,270,6.0,18.0,-999,0.00,,,-99.99,WeatherLink 5.4,2013-01-04 12:00:00,
2013-01-04 07:03:00,25.6,-99.9,-100.00,West,270,6.0,18.0,-999,0.00,,,-99.99,WeatherLink 5.4,2013-01-04 12:03:00,
2013-01-04 07:30:00,25.3,-99.9,-100.00,West,270,7.0,17.0,-999,0.00,,,-99.99,WeatherLink 5.4,2013-01-04 12:30:00,
2013-01-04 07:33:00,25.3,-99.9,-100.00,West,270,7.0,17.0,-999,0.00,,,-99.99,WeatherLink 5.4,2013-01-04 12:33:00,
2013-01-04 07:38:00,25.3,-99.9,-100.00,West,270,7.0,17.0,-999,0.00,,,-99.99,WeatherLink 5.4,2013-01-04 12:38:00,
2013-01-04 08:00:00,24.4,-99.9,-100.00,WSW,247,8.0,19.0,-999,0.00,,,-99.99,WeatherLink 5.4,2013-01-04 13:00:00,
2013-01-04 08:03:00,24.4,-99.9,-100.00,WSW,247,8.0,19.0,-999,0.00,,,-99.99,WeatherLink 5.4,2013-01-04 13:03:00,
2013-01-04 08:30:00,24.0,-99.9,-100.00,WSW,247,8.0,19.0,-999,0.00,,,-99.99,WeatherLink 5.4,2013-01-04 13:30:00,
2013-01-04 08:33:00,24.0,-99.9,-100.00,WSW,247,8.0,19.0,-999,0.00,,,-99.99,WeatherLink 5.4,2013-01-04 13:33:00,
2013-01-04 08:38:00,24.0,-99.9,-100.00,WSW,247,8.0,19.0,-999,0.00,,,-99.99,WeatherLink 5.4,2013-01-04 13:38:00,
2013-01-04 09:00:00,24.3,-99.9,-100.00,WSW,247,7.0,18.0,-999,0.00,,,-99.99,WeatherLink 5.4,2013-01-04 14:00:00,
2013-01-04 09:03:00,24.3,-99.9,-100.00,WSW,247,7.0,18.0,-999,0.00,,,-99.99,WeatherLink 5.4,2013-01-04 14:03:00,
2013-01-04 09:30:00,24.7,-99.9,-100.00,West,270,7.0,20.0,-999,0.00,,,-99.99,WeatherLink 5.4,2013-01-04 14:30:00,
2013-01-04 09:33:00,24.7,-99.9,-100.00,West,270,7.0,20.0,-999,0.00,,,-99.99,WeatherLink 5.4,2013-01-04 14:33:00,
2013-01-04 10:00:00,24.8,-99.9,-100.00,West,270,8.0,20.0,-999,0.00,,,-99.99,WeatherLink 5.4,2013-01-04 15:00:00,
2013-01-04 10:03:00,24.8,-99.9,-100.00,West,270,8.0,20.0,-999,0.00,,,-99.99,WeatherLink 5.4,2013-01-04 15:03:00,
2013-01-04 10:08:00,24.8,-99.9,-100.00,West,270,8.0,20.0,-999,0.00,,,-99.99,WeatherLink 5.4,2013-01-04 15:08:00,
2013-01-04 10:30:00,26.9,-99.9,-100.00,WSW,247,8.0,20.0,-999,0.00,,,-99.99,WeatherLink 5.4,2013-01-04 15:30:00,
2013-01-04 10:33:00,26.9,-99.9,-100.00,WSW,247,8.0,20.0,-999,0.00,,,-99.99,WeatherLink 5.4,2013-01-04 15:33:00,
2013-01-04 11:00:00,27.6,-99.9,-100.00,WSW,247,9.0,19.0,-999,0.00,,,-99.99,WeatherLink 5.4,2013-01-04 16:00:00,
2013-01-04 11:03:00,27.6,-99.9,-100.00,WSW,247,9.0,19.0,-999,0.00,,,-99.99,WeatherLink 5.4,2013-01-04 16:03:00,
2013-01-04 11:09:00,27.6,-99.9,-100.00,WSW,247,9.0,19.0,-999,0.00,,,-99.99,WeatherLink 5.4,2013-01-04 16:09:00,
2013-01-04 11:30:00,28.5,-99.9,-100.00,West,270,11.0,23.0,-999,0.00,,,-99.99,WeatherLink 5.4,2013-01-04 16:30:00,
2013-01-04 11:33:00,28.5,-99.9,-100.00,West,270,11.0,23.0,-999,0.00,,,-99.99,WeatherLink 5.4,2013-01-04 16:33:00,
2013-01-04 12:00:00,33.5,-99.9,-100.00,West,270,9.0,19.0,-999,0.00,,,-99.99,WeatherLink 5.4,2013-01-04 17:00:00,
2013-01-04 12:03:00,33.5,-99.9,-100.00,West,270,9.0,19.0,-999,0.00,,,-99.99,WeatherLink 5.4,2013-01-04 17:03:00,
2013-01-04 12:30:00,35.4,-99.9,-100.00,West,270,9.0,19.0,-999,0.00,,,-99.99,WeatherLink 5.4,2013-01-04 17:30:00,
2013-01-04 12:33:00,35.4,-99.9,-100.00,West,270,9.0,19.0,-999,0.00,,,-99.99,WeatherLink 5.4,2013-01-04 17:33:00,
2013-01-04 12:38:00,35.4,-99.9,-100.00,West,270,9.0,19.0,-999,0.00,,,-99.99,WeatherLink 5.4,2013-01-04 17:38:00,
2013-01-04 13:00:00,29.4,-99.9,-100.00,WSW,247,10.0,21.0,-999,0.00,,,-99.99,WeatherLink 5.4,2013-01-04 18:00:00,
2013-01-04 13:03:00,29.4,-99.9,-100.00,WSW,247,10.0,21.0,-999,0.00,,,-99.99,WeatherLink 5.4,2013-01-04 18:03:00,
2013-01-04 13:30:00,30.1,-99.9,-100.00,West,270,8.0,21.0,-999,0.00,,,-99.99,WeatherLink 5.4,2013-01-04 18:30:00,
2013-01-04 13:34:00,30.1,-99.9,-100.00,West,270,8.0,21.0,-999,0.00,,,-99.99,WeatherLink 5.4,2013-01-04 18:34:00,
2013-01-04 14:00:00,30.1,-99.9,-100.00,WSW,247,10.0,23.0,-999,0.00,,,-99.99,WeatherLink 5.4,2013-01-04 19:00:00,
2013-01-04 14:03:00,30.1,-99.9,-100.00,WSW,247,10.0,23.0,-999,0.00,,,-99.99,WeatherLink 5.4,2013-01-04 19:03:00,
2013-01-04 14:30:00,29.6,-99.9,-100.00,WSW,247,12.0,26.0,-999,0.00,,,-99.99,WeatherLink 5.4,2013-01-04 19:30:00,
2013-01-04 14:33:00,29.6,-99.9,-100.00,WSW,247,12.0,26.0,-999,0.00,,,-99.99,WeatherLink 5.4,2013-01-04 19:33:00,
2013-01-04 15:00:00,29.5,-99.9,-100.00,West,270,10.0,22.0,-999,0.00,,,-99.99,WeatherLink 5.4,2013-01-04 20:00:00,
2013-01-04 15:03:00,29.5,-99.9,-100.00,West,270,10.0,22.0,-999,0.00,,,-99.99,WeatherLink 5.4,2013-01-04 20:03:00,
2013-01-04 15:30:00,29.3,-99.9,-100.00,West,270,10.0,24.0,-999,0.00,,,-99.99,WeatherLink 5.4,2013-01-04 20:30:00,
2013-01-04 15:33:00,29.3,-99.9,-100.00,West,270,10.0,24.0,-999,0.00,,,-99.99,WeatherLink 5.4,2013-01-04 20:33:00,
2013-01-04 16:00:00,28.5,-99.9,-100.00,WSW,247,11.0,29.0,-999,0.00,,,-99.99,WeatherLink 5.4,2013-01-04 21:00:00,
2013-01-04 16:03:00,28.5,-99.9,-100.00,WSW,247,11.0,29.0,-999,0.00,,,-99.99,WeatherLink 5.4,2013-01-04 21:03:00,
2013-01-04 16:30:00,27.3,-99.9,-100.00,West,270,10.0,24.0,-999,0.00,,,-99.99,WeatherLink 5.4,2013-01-04 21:30:00,
2013-01-04 16:33:00,27.3,-99.9,-100.00,West,270,10.0,24.0,-999,0.00,,,-99.99,WeatherLink 5.4,2013-01-04 21:33:00,
2013-01-04 17:00:00,25.3,-99.9,-100.00,WSW,247,10.0,23.0,-999,0.00,,,-99.99,WeatherLink 5.4,2013-01-04 22:00:00,
2013-01-04 17:03:00,25.3,-99.9,-100.00,WSW,247,10.0,23.0,-999,0.00,,,-99.99,WeatherLink 5.4,2013-01-04 22:03:00,
2013-01-04 17:30:00,26.0,-99.9,-100.00,West,270,10.0,21.0,-999,0.00,,,-99.99,WeatherLink 5.4,2013-01-04 22:30:00,
2013-01-04 17:33:00,26.0,-99.9,-100.00,West,270,10.0,21.0,-999,0.00,,,-99.99,WeatherLink 5.4,2013-01-04 22:33:00,
2013-01-04 18:00:00,26.0,-99.9,-100.00,WSW,247,10.0,27.0,-999,0.00,,,-99.99,WeatherLink 5.4,2013-01-04 23:00:00,
2013-01-04 18:03:00,26.0,-99.9,-100.00,WSW,247,10.0,27.0,-999,0.00,,,-99.99,WeatherLink 5.4,2013-01-04 23:03:00,
2013-01-04 18:30:00,25.6,-99.9,-100.00,West,270,9.0,21.0,-999,0.00,,,-99.99,WeatherLink 5.4,2013-01-04 23:30:00,
2013-01-04 18:33:00,25.6,-99.9,-100.00,West,270,9.0,21.0,-999,0.00,,,-99.99,WeatherLink 5.4,2013-01-04 23:33:00,
2013-01-04 18:39:00,25.6,-99.9,-100.00,West,270,9.0,21.0,-999,0.00,,,-99.99,WeatherLink 5.4,2013-01-04 23:39:00,
2013-01-04 19:00:00,25.4,-99.9,-100.00,West,270,8.0,22.0,-999,0.00,,,-99.99,WeatherLink 5.4,2013-01-05 00:00:00,
2013-01-04 19:03:00,25.4,-99.9,-100.00,West,270,8.0,22.0,-999,0.00,,,-99.99,WeatherLink 5.4,2013-01-05 00:03:00,
2013-01-04 19:30:00,25.2,-99.9,-100.00,West,270,7.0,24.0,-999,0.00,,,-99.99,WeatherLink 5.4,2013-01-05 00:30:00,
2013-01-04 19:33:00,25.2,-99.9,-100.00,West,270,7.0,24.0,-999,0.00,,,-99.99,WeatherLink 5.4,2013-01-05 00:33:00,
2013-01-04 20:00:00,25.1,-99.9,-100.00,West,270,7.0,20.0,-999,0.00,,,-99.99,WeatherLink 5.4,2013-01-05 01:00:00,
2013-01-04 20:03:00,25.1,-99.9,-100.00,West,270,7.0,20.0,-999,0.00,,,-99.99,WeatherLink 5.4,2013-01-05 01:03:00,
2013-01-04 20:30:00,25.0,-99.9,-100.00,West,270,7.0,18.0,-999,0.00,,,-99.99,WeatherLink 5.4,2013-01-05 01:30:00,
2013-01-04 20:33:00,25.0,-99.9,-100.00,West,270,7.0,18.0,-999,0.00,,,-99.99,WeatherLink 5.4,2013-01-05 01:33:00,
2013-01-04 21:00:00,24.8,-99.9,-100.00,West,270,6.0,16.0,-999,0.00,,,-99.99,WeatherLink 5.4,2013-01-05 02:00:00,
2013-01-04 21:03:00,24.8,-99.9,-100.00,West,270,6.0,16.0,-999,0.00,,,-99.99,WeatherLink 5.4,2013-01-05 02:03:00,
2013-01-04 21:30:00,24.6,-99.9,-100.00,West,270,7.0,22.0,-999,0.00,,,-99.99,WeatherLink 5.4,2013-01-05 02:30:00,
2013-01-04 21:33:00,24.6,-99.9,-100.00,West,270,7.0,22.0,-999,0.00,,,-99.99,WeatherLink 5.4,2013-01-05 02:33:00,
2013-01-04 22:00:00,24.4,-99.9,-100.00,West,270,6.0,13.0,-999,0.00,,,-99.99,WeatherLink 5.4,2013-01-05 03:00:00,
2013-01-04 22:03:00,24.4,-99.9,-100.00,West,270,6.0,13.0,-999,0.00,,,-99.99,WeatherLink 5.4,2013-01-05 03:03:00,
2013-01-04 22:30:00,24.0,-99.9,-100.00,West,270,5.0,18.0,-999,0.00,,,-99.99,WeatherLink 5.4,2013-01-05 03:30:00,
2013-01-04 22:33:00,24.0,-99.9,-100.00,West,270,5.0,18.0,-999,0.00,,,-99.99,WeatherLink 5.4,2013-01-05 03:33:00,
2013-01-04 23:00:00,23.8,-99.9,-100.00,West,270,5.0,14.0,-999,0.00,,,-99.99,WeatherLink 5.4,2013-01-05 04:00:00,
2013-01-04 23:03:00,23.8,-99.9,-100.00,West,270,5.0,14.0,-999,0.00,,,-99.99,WeatherLink 5.4,2013-01-05 04:03:00,
2013-01-04 23:30:00,23.7,-99.9,-100.00,West,270,5.0,13.0,-999,0.00,,,-99.99,WeatherLink 5.4,2013-01-05 04:30:00,
2013-01-04 23:33:00,23.7,-99.9,-100.00,West,270,5.0,13.0,-999,0.00,,,-99.99,WeatherLink 5.4,2013-01-05 04:33:00,
2013-01-04 23:38:00,23.7,-99.9,-100.00,West,270,5.0,13.0,-999,0.00,,,-99.99,WeatherLink 5.4,2013-01-05 04:38:00,